This is the latest recevied weather packets stored in our database for station/object F5IOR. If no packets are shown the sender has not sent any weather packets the latest 10 day(s).
| Time | Temp. | Humidity | Pressure | Rain* | Wind** | Luminosity | Snow |
|---|---|---|---|---|---|---|---|
| 1787940375 | 20.56° C | 57% | 988.4 hPa | 17.78 mm | - | - | - |
| 1787938575 | 20.56° C | 58% | 988.4 hPa | 17.78 mm | - | - | - |
| 1787936775 | 21.11° C | 56% | 988.4 hPa | 17.78 mm | - | - | - |
| 1787934975 | 21.67° C | 53% | 988.3 hPa | 17.78 mm | - | - | - |
| 1787933175 | 22.78° C | 50% | 987.8 hPa | 17.78 mm | - | - | - |
| 1787931375 | 22.78° C | 49% | 987.8 hPa | 17.78 mm | - | - | - |
| 1787929575 | 23.89° C | 46% | 987.7 hPa | 17.78 mm | - | - | - |
| 1787927775 | 23.89° C | 45% | 987.6 hPa | 17.78 mm | - | - | - |
| 1787925975 | 24.44° C | 43% | 987.5 hPa | 17.78 mm | - | - | - |
| 1787924175 | 23.89° C | 42% | 987.4 hPa | 17.78 mm | - | - | - |
| 1787922375 | 23.89° C | 42% | 987.6 hPa | 17.78 mm | - | - | - |
| 1787920575 | 23.89° C | 43% | 987.6 hPa | 17.78 mm | - | - | - |
| 1787918781 | 23.33° C | 46% | 987.5 hPa | 17.78 mm | - | - | - |
| 1787916975 | 23.33° C | 47% | 987.5 hPa | 17.78 mm | - | - | - |
| 1787915175 | 22.78° C | 50% | 987.5 hPa | 17.78 mm | - | - | - |
| 1787913375 | 22.22° C | 51% | 987.5 hPa | 17.78 mm | - | - | - |
| 1787911578 | 22.22° C | 55% | 987.7 hPa | 17.78 mm | - | - | - |
| 1787909775 | 22.22° C | 57% | 987.6 hPa | 17.78 mm | - | - | - |
| 1787908815 | 21.67° C | 62% | 987.3 hPa | 17.78 mm | - | - | - |
| 1787907855 | 21.67° C | 64% | 987.1 hPa | 17.78 mm | - | - | - |
| 1787906895 | 21.67° C | 66% | 986.8 hPa | 17.78 mm | - | - | - |
| 1787905935 | 20.56° C | 70% | 986.4 hPa | 17.78 mm | - | - | - |
| 1787905455 | 20.56° C | 70% | 986.4 hPa | 17.78 mm | - | - | - |
| 1787904975 | 20.56° C | 70% | 986.4 hPa | 17.78 mm | - | - | - |
| 1787904495 | 20.56° C | 73% | 986.1 hPa | 17.78 mm | - | - | - |
* Rain latest hour (hover to see other rain measurements)
** Current wind speed in m/s (hover to see current wind gust speed)